FW4373 Weather Reports


Display with metric or nautical units.
time (UTC)temp
F
wind
direction
speed
MPH
gust
MPH
rain 1hr
in
rain 24hr
in
rain mn
in
humidity
%
barometer
mb
20260507111528 56 0 0.0 2.0 0.00 0.00 0.00 47 1016.3
20260507091537 54 0 0.0 1.0 0.00 0.00 0.00 70 1016.7
20260507083026 51 105 2.0 5.0 0.00 0.00 0.00 80 1016.9
20260507081528 51 0 0.0 3.0 0.00 0.00 0.00 82 1016.9
20260507080027 49 100 1.0 4.0 0.00 0.00 0.00 84 1017.0
20260507074529 47 0 0.0 5.0 0.00 0.00 0.00 87 1016.8
20260507073027 46 0 0.0 4.0 0.00 0.00 0.00 87 1016.8
20260507071529 44 69 0.0 2.0 0.00 0.00 0.00 86 1016.7
20260507070028 43 0 0.0 0.0 0.00 0.00 0.00 89 1016.6
20260507064525 42 0 0.0 1.0 0.00 0.00 0.00 91 1016.7
20260507063027 40 0 0.0 1.0 0.00 0.00 0.00 92 1016.7
20260507061529 39 0 0.0 0.0 0.00 0.00 0.00 93 1016.6
20260507060026 39 0 0.0 0.0 0.00 0.00 0.00 93 1016.5
20260507054525 39 0 0.0 0.0 0.00 0.00 0.00 93 1016.5
20260507053030 38 0 0.0 0.0 0.00 0.00 0.00 93 1016.3
20260507051526 38 0 0.0 0.0 0.00 0.00 0.00 93 1016.3
20260507050040 38 0 0.0 0.0 0.00 0.00 0.00 93 1016.3
20260507044526 37 0 0.0 0.0 0.00 0.00 0.00 92 1016.2
20260507043025 37 0 0.0 0.0 0.00 0.00 0.00 92 1016.1
20260507041528 37 0 0.0 0.0 0.00 0.00 0.00 92 1016.3
20260507040026 37 0 0.0 0.0 0.00 0.00 0.00 92 1016.2
20260507034529 38 0 0.0 0.0 0.00 0.00 0.00 92 1016.1
20260507033026 38 0 0.0 0.0 0.00 0.00 0.00 91 1016.2
20260507031529 38 0 0.0 0.0 0.00 0.00 0.00 91 1016.2
20260507030031 39 0 0.0 0.0 0.00 0.00 0.00 91 1016.2
20260507024533 39 0 0.0 0.0 0.00 0.00 0.00 91 1016.1
20260507023029 39 0 0.0 0.0 0.00 0.00 0.00 91 1016.1
20260507021533 39 0 0.0 0.0 0.00 0.00 0.00 91 1016.2
20260507020028 39 0 0.0 0.0 0.00 0.00 0.00 91 1016.1
20260507014531 39 0 0.0 0.0 0.00 0.00 0.00 90 1015.9
20260507013029 39 0 0.0 0.0 0.00 0.00 0.00 90 1015.9
20260507011526 40 0 0.0 0.0 0.00 0.00 0.00 89 1016.0
20260507010032 40 0 0.0 0.0 0.00 0.00 0.00 89 1016.0
20260507004527 40 0 0.0 0.0 0.00 0.00 0.00 88 1015.9
20260507003025 41 0 0.0 0.0 0.00 0.00 0.00 88 1015.9
20260507000032 42 0 0.0 0.0 0.00 0.00 0.00 86 1016.0
20260506234525 42 0 0.0 0.0 0.00 0.00 0.00 85 1016.0
20260506233026 42 0 0.0 0.0 0.00 0.00 0.00 84 1015.8
20260506231528 43 0 0.0 0.0 0.00 0.00 0.00 83 1015.7
20260506224526 43 0 0.0 0.0 0.00 0.00 0.00 81 1015.7
20260506223025 44 0 0.0 0.0 0.00 0.00 0.00 80 1015.6
20260506221530 45 0 0.0 0.0 0.00 0.00 0.00 78 1015.7
20260506220028 45 0 0.0 0.0 0.00 0.00 0.00 77 1015.6
20260506214526 46 0 0.0 0.0 0.00 0.00 0.00 74 1015.5
20260506213037 47 0 0.0 0.0 0.00 0.00 0.00 72 1015.5
20260506211539 48 0 0.0 0.0 0.00 0.00 0.00 70 1015.5
20260506210035 49 0 0.0 0.0 0.00 0.00 0.00 68 1015.4
20260506204533 50 0 0.0 0.0 0.00 0.00 0.00 66 1015.2
20260506203026 51 0 0.0 2.0 0.00 0.00 0.00 65 1015.3
20260506201535 51 0 0.0 3.0 0.00 0.00 0.00 64 1015.1
20260506200032 52 0 0.0 3.0 0.00 0.00 0.00 64 1015.1
20260506194527 52 0 0.0 1.0 0.00 0.00 0.00 64 1015.0
20260506193042 52 0 0.0 2.0 0.00 0.00 0.00 63 1014.7
20260506191528 52 0 0.0 1.0 0.00 0.00 0.00 63 1014.6
20260506190052 53 0 0.0 5.0 0.00 0.00 0.00 63 1014.7
20260506184531 53 0 0.0 4.0 0.00 0.00 0.00 61 1014.5
20260506183026 53 0 0.0 4.0 0.00 0.00 0.00 60 1014.4
20260506181537 53 71 0.0 6.0 0.00 0.00 0.00 61 1014.3
20260506180030 54 55 0.0 5.0 0.00 0.00 0.00 62 1014.0
20260506174535 54 75 0.0 7.0 0.00 0.00 0.00 62 1013.9
20260506173048 54 86 3.0 7.0 0.00 0.00 0.00 60 1013.8
20260506171538 54 109 1.0 7.0 0.00 0.00 0.00 59 1013.7
20260506170031 55 119 3.0 9.0 0.00 0.00 0.00 58 1013.8
20260506164528 55 0 1.0 5.0 0.00 0.00 0.00 59 1013.8
20260506163033 55 73 0.0 4.0 0.00 0.00 0.00 58 1013.7
20260506161530 54 0 0.0 5.0 0.00 0.00 0.00 58 1013.8
20260506160027 54 92 3.0 8.0 0.00 0.00 0.00 58 1013.8
20260506154528 56 74 1.0 8.0 0.00 0.00 0.00 57 1013.8
20260506153027 55 0 0.0 8.0 0.00 0.00 0.00 57 1013.7
20260506151528 55 108 2.0 10.0 0.00 0.00 0.00 57 1013.9
20260506150025 57 0 1.0 9.0 0.00 0.00 0.00 54 1013.8
20260506144527 56 0 0.0 5.0 0.00 0.00 0.00 52 1013.8
20260506143029 57 0 1.0 9.0 0.00 0.00 0.00 50 1013.8
20260506141529 57 98 3.0 9.0 0.00 0.00 0.00 51 1013.8
20260506140032 57 0 0.0 11.0 0.00 0.00 0.00 50 1013.8
20260506134528 58 0 0.0 9.0 0.00 0.00 0.00 47 1013.8
20260506133035 57 59 2.0 8.0 0.00 0.00 0.00 49 1013.7
20260506131528 57 85 3.0 8.0 0.00 0.00 0.00 49 1013.6
20260506130026 57 104 3.0 8.0 0.00 0.00 0.00 51 1013.8
20260506124526 57 0 1.0 9.0 0.00 0.00 0.00 51 1013.9
20260506123025 56 19 2.0 12.0 0.00 0.00 0.00 52 1014.0
20260506121527 56 69 3.0 10.0 0.00 0.00 0.00 53 1014.0
20260506120026 56 77 3.0 12.0 0.00 0.00 0.00 56 1013.9
20260506114529 55 0 2.0 10.0 0.00 0.00 0.00 56 1014.0
20260506113028 56 320 1.0 10.0 0.00 0.00 0.00 54 1014.2